User: anonymous   Login
Location: Seattle
(47.6062°N, 122.3321°W)
Time: 06:30:57
(UTC-07:00)
Language:

Dragon CRS-6 - Orbit

View from above orbital plane
View from above orbital plane
View from above satellite
View from above satellite

Ground track
Ground track

The orbit data is extracted from the following two-line orbital elements,

1 40588U 15021A   15141.60057571  .00000008  00000-0  11380-6 0  9994
2 40588 051.6423 216.7813 0005129 160.8192 199.3520 15.57078041  5732
Epoch (UTC): 21 May 2015 14:24:49
Eccentricity: 0.0005129
inclination: 51.6423°
perigee height: 392 km
apogee height: 399 km
right ascension of ascending node: 216.7813°
argument of perigee: 160.8192°
revolutions per day: 15.57078041
mean anomaly at epoch: 199.3520°
orbit number at epoch: 573

The dashed part of the orbit path shows where the satellite is in the earth's shadow,  

DLR